[[{"header":{"parameterUnit":"m.s-1","parameterCategory":1,"la1":30.2991,"la2":30.254,"lo1":-89.0895,"lo2":-89.0444,"dy":0.0017,"dx":0.0017,"nx":28,"ny":28,"refTime":"2025-09-03T21:00:00:Z","depth":0,"parameterNumber":2,"parameterNumberName":"U-component_of_WINDS"},"data":[0,0,0,0,0,0,0,0,0,0,0,0,0,0,0,0,0,0,0,0,0,0,0,0,0,0,0,0,0,0,0,0,0,0,0,0,0,0,0,0,0,0,0,0,0,0,0,0,0,0,0,0,0,0,0,0,0,0,1.172,1.172,0,1.1722,1.1722,1.1722,1.17,1.1699,1.1699,1.1698,1.1699,1.1699,1.17,0,0,0,0,0,0,0,0,0,0,0,0,0,1.1694,1.1694,1.172,1.172,1.172,1.1722,1.1722,1.1722,1.17,1.1699,1.1699,1.1698,1.1698,1.1699,1.17,0,0,0,0,0,0,0,0,0,0,0,0,0,1.1702,1.1695,1.172,1.1709,1.1708,1.1722,1.1722,1.1722,1.17,1.1699,1.1698,1.1697,1.1698,1.1699,1.17,1.1724,0,0,1.1703,1.1703,0,0,0,0,0,0,0,0,1.1701,1.1703,1.1711,1.171,1.1709,1.171,1.1713,1.1723,1.17,1.1703,1.1698,1.1697,1.1703,1.1703,1.1706,1.1724,1.1724,1.1703,1.1703,1.1704,1.1704,0,0,0,0,0,0,0,1.1701,1.1702,1.1721,1.1711,1.171,1.1703,1.1704,1.1715,1.1708,1.1703,1.1701,1.1702,1.1702,1.1705,1.1706,1.1724,1.1703,1.1703,1.1704,1.1704,1.1758,1.1759,0,0,0,0,0,0,1.1702,1.1702,1.1721,1.1721,1.1703,1.1705,1.1705,1.1711,1.1708,1.1707,1.1703,1.1701,1.1704,1.1705,1.1706,1.1731,1.1704,1.1704,1.1705,1.1757,1.1759,1.176,0,0,0,0,0,0,1.1701,1.1704,1.1721,1.1711,1.1713,1.1706,1.1713,1.1711,1.1714,1.1708,1.1706,1.1707,1.1703,1.1704,1.1719,1.1731,1.1705,1.1706,1.1756,1.1758,1.1759,1.1784,0,0,0,0,0,0,1.1701,1.1704,1.1714,1.1712,1.1713,1.1735,1.1714,1.1712,1.1716,1.1713,1.1711,1.171,1.1703,1.1718,1.172,1.1732,1.1706,1.1755,1.1757,1.1759,1.1782,1.1786,1.1789,0,0,0,0,0,1.17,1.1721,1.1714,1.1717,1.1726,1.1736,1.1737,1.1728,1.1717,1.1726,1.1722,1.171,1.173,1.1719,1.1721,1.1734,1.1754,1.1757,1.1758,1.178,1.1785,1.1789,0,0,0,0,0,0,1.1725,1.172,1.1713,1.1734,1.1736,1.1732,1.1743,1.1734,1.1738,1.1736,1.1724,1.1724,1.174,1.1739,1.1727,1.1755,1.174,1.1742,1.1756,1.176,1.1764,1.1763,1.1707,0,0,0,0,0,1.1733,1.1742,1.1738,1.1756,1.1758,1.175,1.1755,1.1748,1.1748,1.1749,1.1746,1.1746,1.1752,1.1756,1.1762,1.1782,1.178,1.1791,1.1795,1.1798,1.18,1.1808,1.1813,1.1766,1.1766,1.1766,0,0,1.1749,1.1748,1.1755,1.1761,1.1762,1.177,1.1751,1.1762,1.1767,1.175,1.1763,1.1761,1.1761,1.1777,1.1785,1.1777,1.1812,1.1801,1.1803,1.1803,1.1811,1.1815,1.1819,1.1768,1.1767,1.1767,0,0,1.1783,1.1784,1.1799,1.1799,1.1799,1.1794,1.1798,1.1795,1.1793,1.1806,1.1792,1.1799,1.181,1.181,1.1811,1.1843,1.1831,1.1845,1.1864,1.1872,1.1875,1.1878,1.1888,1.1891,1.1847,1.1847,1.1847,0,1.1803,1.1816,1.1807,1.1818,1.182,1.1805,1.1819,1.1819,1.1822,1.1823,1.1814,1.1826,1.1825,1.184,1.1848,1.185,1.1852,1.1844,1.1876,1.1879,1.1881,1.189,1.1894,1.1848,1.1848,1.1848,1.1848,0,1.184,1.1849,1.1861,1.1862,1.1866,1.1879,1.187,1.1875,1.1867,1.1863,1.1875,1.1873,1.1876,1.188,1.1873,1.1893,1.1888,1.1878,1.1862,1.1887,1.1895,1.1899,1.185,1.185,1.1849,1.1849,0,0,1.189,1.1885,1.1889,1.1889,1.1888,1.1894,1.1905,1.1908,1.1911,1.1913,1.1921,1.193,1.1919,1.1921,1.1913,1.1921,1.1943,1.1909,1.1909,1.1914,1.1963,1.197,1.1974,1.1936,1.1937,1.1937,1.1962,0,1.1921,1.1939,1.193,1.1949,1.1956,1.1941,1.195,1.1949,1.1945,1.195,1.1944,1.195,1.1937,1.1938,1.1944,1.1939,1.1952,1.1937,1.1941,1.1941,1.194,1.1978,1.1986,1.2009,1.1965,1.1966,1.1966,0,1.196,1.1962,1.1982,1.1977,1.198,1.1988,1.1989,1.1994,1.1993,1.1989,1.1989,1.198,1.1988,1.1973,1.1984,1.1973,1.1974,1.1972,1.1973,1.1971,1.1954,1.1976,1.2017,1.202,1.1972,1.1971,1.1971,0,1.1991,1.2,1.2012,1.2012,1.2008,1.2013,1.2012,1.2009,1.2011,1.2012,1.2013,1.2015,1.2016,1.2017,1.2007,1.1997,1.2018,1.2003,1.2014,1.2014,1.2018,1.2017,1.2058,1.2021,1.2021,1.2021,1.2021,0,1.2026,1.2038,1.2026,1.2033,1.2045,1.2035,1.2047,1.2043,1.2041,1.2046,1.2033,1.2038,1.2026,1.203,1.2022,1.2031,1.2032,1.2028,1.2025,1.2028,1.2028,1.2027,1.2025,1.2022,1.2022,1.2022,1.2022,0,1.2063,1.2056,1.2068,1.2062,1.206,1.2069,1.2064,1.207,1.2064,1.2071,1.2072,1.2062,1.2066,1.2056,1.2058,1.2053,1.2065,1.2061,1.2066,1.2064,1.2074,1.2073,1.2114,1.2118,1.2081,1.2081,1.2082,0,1.2085,1.2094,1.2089,1.2091,1.209,1.2095,1.2096,1.2086,1.2088,1.2085,1.2091,1.2093,1.2094,1.2099,1.2092,1.2093,1.2088,1.2102,1.2088,1.2089,1.2085,1.2084,1.2084,1.2105,1.2105,1.2105,1.2106,0,1.2124,1.212,1.2123,1.2124,1.2126,1.2126,1.2126,1.2129,1.2117,1.212,1.2122,1.2123,1.2125,1.2126,1.2125,1.2122,1.2111,1.211,1.2113,1.2115,1.2116,1.2114,1.2072,1.2109,1.2109,1.2109,1.2109,1.2108,1.2153,1.2159,1.2156,1.2159,1.2157,1.2157,1.2161,1.2156,1.2158,1.2158,1.2152,1.2155,1.2151,1.2149,1.2147,1.2149,1.2142,1.2146,1.2146,1.2147,1.2148,1.2117,1.2149,1.2149,1.2149,1.2149,1.2148,0,1.219,1.2187,1.219,1.2189,1.2191,1.2181,1.2179,1.2181,1.2185,1.2182,1.2183,1.2185,1.2186,1.2179,1.2179,1.2182,1.2177,1.2182,1.2181,1.218,1.2155,1.2152,1.2186,1.2186,1.2186,1.2186,1.2186,1.2186,1.2209,1.2218,1.2213,1.222,1.2216,1.222,1.222,1.2218,1.2216,1.2219,1.222,1.2215,1.221,1.2209,1.2209,1.2206,1.2206,1.2213,1.2208,1.2185,1.2182,1.2178,1.2175,1.2213,1.2213,1.2233,1.2233,1.2233]},{"header":{"parameterUnit":"m.s-1","parameterCategory":1,"la1":30.2991,"la2":30.254,"lo1":-89.0895,"lo2":-89.0444,"dy":0.0017,"dx":0.0017,"nx":28,"ny":28,"refTime":"2025-09-03T21:00:00:Z","depth":0,"parameterNumber":3,"parameterNumberName":"V-component_of_WINDS"},"data":[0,0,0,0,0,0,0,0,0,0,0,0,0,0,0,0,0,0,0,0,0,0,0,0,0,0,0,0,0,0,0,0,0,0,0,0,0,0,0,0,0,0,0,0,0,0,0,0,0,0,0,0,0,0,0,0,0,0,4.6589,4.6589,0,4.6601,4.6601,4.6601,4.6538,4.6536,4.6535,4.6533,4.6544,4.6546,4.6548,0,0,0,0,0,0,0,0,0,0,0,0,0,4.6509,4.651,4.6589,4.6589,4.6589,4.6601,4.6601,4.6601,4.6539,4.6536,4.6534,4.6532,4.6543,4.6546,4.6548,0,0,0,0,0,0,0,0,0,0,0,0,0,4.6534,4.6511,4.6589,4.6559,4.6557,4.6601,4.6601,4.6601,4.6539,4.6536,4.6534,4.6531,4.6542,4.6545,4.6548,4.6621,0,0,4.6557,4.6559,0,0,0,0,0,0,0,0,4.6533,4.6537,4.6563,4.6561,4.6559,4.6565,4.6577,4.6608,4.654,4.6546,4.6533,4.653,4.6553,4.6555,4.6563,4.6621,4.6622,4.6558,4.6559,4.6561,4.6561,0,0,0,0,0,0,0,4.6531,4.6536,4.6593,4.6564,4.6561,4.6544,4.6545,4.6582,4.6564,4.6545,4.654,4.6543,4.6551,4.656,4.6563,4.6622,4.6557,4.656,4.6562,4.6563,4.6737,4.6739,0,0,0,0,0,0,4.6534,4.6535,4.6593,4.6594,4.6539,4.6548,4.6549,4.6566,4.6564,4.6561,4.6545,4.654,4.6557,4.656,4.6563,4.6645,4.6561,4.6563,4.6565,4.6734,4.6737,4.674,0,0,0,0,0,0,4.6532,4.6539,4.6592,4.6563,4.6569,4.6552,4.6572,4.6567,4.6576,4.6564,4.656,4.6558,4.6555,4.6559,4.6606,4.6645,4.6565,4.6567,4.6731,4.6735,4.6739,4.6812,0,0,0,0,0,0,4.653,4.6539,4.6567,4.6564,4.6571,4.6636,4.6574,4.657,4.6582,4.6575,4.6575,4.6572,4.6553,4.6602,4.6609,4.6647,4.657,4.6727,4.6733,4.6738,4.6806,4.6818,4.6829,0,0,0,0,0,4.6528,4.6588,4.6569,4.6576,4.6605,4.6639,4.6642,4.6619,4.6585,4.6613,4.6604,4.6572,4.664,4.6608,4.6615,4.6655,4.6724,4.6731,4.6737,4.6801,4.6816,4.6828,0,0,0,0,0,0,4.6595,4.6587,4.6566,4.6627,4.6634,4.6628,4.6662,4.6636,4.6652,4.6645,4.6615,4.6616,4.6668,4.6666,4.663,4.6723,4.6676,4.6684,4.6722,4.6736,4.6747,4.6746,4.6572,0,0,0,0,0,4.6618,4.6646,4.6637,4.6692,4.6696,4.6679,4.6692,4.6674,4.668,4.6682,4.6677,4.6684,4.6706,4.6721,4.6741,4.6806,4.6804,4.6837,4.6848,4.6858,4.6864,4.6896,4.691,4.6761,4.6761,4.6761,0,0,4.6664,4.6662,4.6682,4.6705,4.6708,4.6737,4.6681,4.6715,4.6735,4.6687,4.6731,4.6728,4.6732,4.6788,4.6812,4.6788,4.6905,4.6866,4.6873,4.6875,4.6904,4.6918,4.6931,4.6766,4.6765,4.6764,0,0,4.6761,4.6764,4.6809,4.6813,4.6819,4.6806,4.6817,4.6815,4.6811,4.6854,4.6818,4.6842,4.6882,4.6886,4.6893,4.6992,4.6962,4.6999,4.7058,4.7089,4.71,4.7111,4.7143,4.7156,4.7006,4.7007,4.7007,0,4.6817,4.686,4.6835,4.687,4.688,4.6838,4.6882,4.6887,4.6899,4.6907,4.688,4.6928,4.6929,4.6983,4.7007,4.7016,4.7025,4.6998,4.7101,4.7111,4.712,4.7151,4.7163,4.7011,4.701,4.701,4.701,0,4.6927,4.6957,4.6993,4.7004,4.7019,4.7059,4.7038,4.7056,4.7036,4.7027,4.707,4.707,4.7088,4.71,4.7082,4.7152,4.7136,4.7106,4.7058,4.7139,4.7167,4.7179,4.7017,4.7016,4.7014,4.7013,0,0,4.7068,4.7064,4.7078,4.7081,4.7084,4.7106,4.7143,4.7161,4.7175,4.7185,4.7214,4.7248,4.722,4.7228,4.721,4.7238,4.7312,4.7203,4.7203,4.7221,4.7387,4.7408,4.7423,4.7294,4.7296,4.7298,4.7386,0,4.7161,4.7224,4.7202,4.7266,4.7292,4.7252,4.7284,4.7288,4.728,4.73,4.7291,4.7315,4.7277,4.7281,4.7307,4.7298,4.7345,4.7291,4.7318,4.732,4.7316,4.7438,4.7461,4.7544,4.7397,4.7399,4.74,0,4.7279,4.7292,4.7358,4.7354,4.7364,4.7393,4.7407,4.7427,4.7431,4.7423,4.7432,4.7407,4.7442,4.7396,4.7442,4.7406,4.7416,4.7413,4.7416,4.7416,4.7363,4.7438,4.757,4.7582,4.7418,4.7417,4.7415,0,4.7371,4.7406,4.7449,4.7454,4.7451,4.7472,4.7472,4.7473,4.7485,4.7496,4.7503,4.7519,4.7528,4.754,4.752,4.7488,4.7569,4.7521,4.7561,4.7562,4.7578,4.7577,4.7711,4.7589,4.7589,4.7588,4.7588,0,4.7476,4.7518,4.749,4.7517,4.7561,4.7536,4.7581,4.7576,4.7577,4.7601,4.7568,4.7591,4.7564,4.7584,4.7569,4.7608,4.7613,4.7606,4.7601,4.7608,4.7608,4.7612,4.7605,4.7592,4.7591,4.759,4.759,0,4.7586,4.757,4.7614,4.7608,4.7607,4.764,4.7634,4.7657,4.7647,4.7677,4.7683,4.7666,4.7689,4.767,4.7692,4.7681,4.7733,4.7721,4.7731,4.7727,4.7768,4.7763,4.7907,4.7924,4.7793,4.7795,4.7796,0,4.7654,4.7684,4.7681,4.7694,4.7696,4.7719,4.773,4.7705,4.7718,4.7724,4.7747,4.7766,4.778,4.7817,4.7806,4.7822,4.7809,4.7858,4.7811,4.7816,4.7806,4.7804,4.7806,4.7867,4.7868,4.787,4.7871,0,4.7774,4.7764,4.7781,4.7795,4.781,4.782,4.7827,4.7841,4.7815,4.7832,4.7853,4.7864,4.7886,4.7905,4.7917,4.7916,4.7889,4.7886,4.7896,4.7902,4.7906,4.7902,4.7755,4.7882,4.7881,4.788,4.788,4.7879,4.7862,4.7887,4.7887,4.7907,4.7911,4.7918,4.7939,4.7931,4.7949,4.7964,4.7949,4.7975,4.7976,4.799,4.7992,4.8012,4.7991,4.8006,4.8009,4.8013,4.8017,4.7905,4.8014,4.8014,4.8014,4.8013,4.8013,0,4.7978,4.7977,4.7995,4.8006,4.8022,4.7996,4.8002,4.8017,4.804,4.8044,4.8058,4.8082,4.81,4.8091,4.8106,4.8123,4.8111,4.8128,4.8125,4.8125,4.8036,4.8025,4.8138,4.8137,4.8137,4.8137,4.8137,4.8137,4.8041,4.808,4.807,4.8109,4.8107,4.8132,4.8138,4.8144,4.8146,4.8175,4.819,4.8184,4.8182,4.8196,4.8211,4.8208,4.8214,4.8235,4.8227,4.8144,4.8132,4.812,4.8109,4.8237,4.8237,4.8314,4.8315,4.8315]}]]